Location: Alto Pass Reservoir
(37.5801°N, 89.3084°W)
Time: 23:46:24
(UTC+00:00)

NEOSSAT - Pass Details

Date: 02 October 2022
Orbit: 767 x 784 km, 98.4° (Epoch: 05 December)

Event Time Altitude Azimuth Distance (km) Brightness Sun altitude
Rises 10:43:37 0° 125° (SE) 3,236 ? -14.7°
Reaches altitude 10° 10:46:34 10° 107° (ESE) 2,317 ? -14.1°
Maximum altitude 10:49:58 18° 65° (ENE) 1,815 ? -13.4°
Drops below altitude 10° 10:53:24 10° 22° (NNE) 2,334 ? -12.8°
Sets 10:56:23 0° 5° (N) 3,270 ? -12.2°
